Date String (YYYY-MM-DD hh:mm:ss) UTC,Instrument flags,Ambient pressure (hPa),Sample flow (lpm),Bypass flow (lpm),Sample temperature (°C),Ambient temperature (°C),ASC tube jacket temperature (°C),LED temperature (°C),Box temperature (°C),Sample RH (%),Span deviation,Mass concentration (μg/m³),Mass concentration (μg/m³),Mass concentration (μg/m³)
DateTimeUTC,F1_M11,P_M11,Q1_M11,Q2_M11,T1_M11,T2_M11,T3_M11,T4_M11,T5_M11,U1_M11,ZSPAN_M11,X2_M11,X0_M11,X1_M11
2022-04-23 18:00:00,,0813.2,5.00,0.00,23.0,22.1,00.0,32.0,24.8,09.2,0000.0,0000.52,0002.73,0000.22
2022-04-23 18:01:00,,0813.1,4.99,0.00,23.0,22.1,00.0,32.0,24.8,09.1,0000.0,0000.57,0002.94,0000.23
2022-04-23 18:02:00,,0813.0,5.01,0.00,23.0,22.1,00.0,32.0,24.8,09.0,0000.0,0000.57,0002.86,0000.24
2022-04-23 18:03:00,,0812.9,5.00,0.00,22.9,22.1,00.0,32.0,24.8,09.1,0000.0,0000.58,0002.83,0000.26
2022-04-23 18:04:00,,0813.0,4.98,0.00,23.0,22.1,00.0,32.0,24.8,09.2,0000.0,0000.57,0002.32,0000.27
2022-04-23 18:05:00,,0813.1,5.01,0.00,23.0,22.1,00.0,32.0,24.8,09.0,0000.0,0000.56,0001.62,0000.27
2022-04-23 18:06:00,,0813.1,5.02,0.00,23.0,22.1,00.0,32.0,24.7,09.1,0000.0,0000.57,0002.00,0000.28
2022-04-23 18:07:00,,0813.2,5.00,0.00,22.9,22.1,00.0,32.0,24.8,09.1,0000.0,0000.56,0002.40,0000.29
2022-04-23 18:08:00,,0813.2,4.99,0.00,22.9,22.1,00.0,32.0,24.7,09.0,0000.0,0000.58,0002.45,0000.30
2022-04-23 18:09:00,,0813.1,5.00,0.00,22.9,22.1,00.0,32.0,24.8,09.0,0000.0,0000.62,0002.60,0000.32
2022-04-23 18:10:00,,0812.9,5.00,0.00,22.9,22.1,00.0,32.0,24.7,09.0,0000.0,0000.67,0002.72,0000.33
2022-04-23 18:11:00,,0813.0,5.01,0.00,22.9,22.1,00.0,32.0,24.8,08.9,0000.0,0000.67,0002.65,0000.33
2022-04-23 18:12:00,,0813.0,4.99,0.00,22.9,22.0,00.0,32.0,24.8,08.9,0000.0,0000.67,0002.50,0000.34
2022-04-23 18:13:00,,0812.8,5.00,0.00,22.9,22.0,00.0,32.0,24.8,09.0,0000.0,0000.71,0002.87,0000.35
2022-04-23 18:14:00,,0813.3,5.00,0.00,22.9,22.0,00.0,32.0,24.8,09.0,0000.0,0000.77,0004.02,0000.36
2022-04-23 18:15:00,,0813.5,5.00,0.00,22.9,22.0,00.0,31.9,24.7,09.1,0000.0,0000.80,0004.75,0000.36
2022-04-23 18:16:00,,0813.4,5.01,0.00,22.9,22.0,00.0,31.9,24.7,09.1,0000.0,0000.80,0004.65,0000.35
2022-04-23 18:17:00,,0813.6,4.99,0.00,22.9,22.0,00.0,31.9,24.7,09.0,0000.0,0000.80,0004.40,0000.35
2022-04-23 18:18:00,,0813.6,5.01,0.00,22.9,22.0,00.0,31.9,24.7,09.1,0000.0,0000.84,0004.19,0000.34
2022-04-23 18:19:00,,0813.6,4.99,0.00,22.9,22.0,00.0,31.9,24.7,09.2,0000.0,0000.84,0004.25,0000.34
2022-04-23 18:20:00,,0813.5,4.99,0.00,22.9,22.0,00.0,31.9,24.7,09.1,0000.0,0000.85,0004.26,0000.33
2022-04-23 18:21:00,,0813.6,5.01,0.00,22.9,22.0,00.0,31.9,24.7,09.2,0000.0,0000.87,0004.80,0000.33
2022-04-23 18:22:00,,0813.5,4.99,0.00,22.9,22.0,00.0,31.9,24.7,09.1,0000.0,0000.84,0005.61,0000.32
2022-04-23 18:23:00,,0813.8,5.01,0.00,22.9,22.0,00.0,31.9,24.7,09.2,0000.0,0000.81,0005.54,0000.31
2022-04-23 18:24:00,,0813.6,4.99,0.00,22.9,22.0,00.0,31.9,24.7,09.3,0000.0,0000.82,0005.29,0000.31
2022-04-23 18:25:00,,0813.8,5.00,0.00,22.9,22.0,00.0,31.9,24.7,09.2,0000.0,0000.79,0004.31,0000.29
2022-04-23 18:26:00,,0813.7,5.00,0.00,22.9,22.0,00.0,31.9,24.7,09.3,0000.0,0000.79,0003.62,0000.29
2022-04-23 18:27:00,,0813.8,5.00,0.00,22.9,22.0,00.0,31.9,24.7,09.4,0000.0,0000.81,0003.73,0000.29
2022-04-23 18:28:00,,0813.7,5.01,0.00,22.9,22.0,00.0,31.9,24.7,09.3,0000.0,0000.83,0003.79,0000.30
2022-04-23 18:29:00,,0813.9,4.99,0.00,22.9,22.0,00.0,31.9,24.7,09.3,0000.0,0000.87,0003.81,0000.31
2022-04-23 18:30:00,,0813.9,4.99,0.00,22.9,22.0,00.0,31.9,24.7,09.4,0000.0,0000.88,0003.79,0000.31
2022-04-23 18:31:00,,0813.4,5.01,0.00,22.9,22.0,00.0,31.9,24.7,09.5,0000.0,0000.84,0003.88,0000.31
2022-04-23 18:32:00,,0813.0,5.01,0.00,22.9,22.0,00.0,31.9,24.7,09.3,0000.0,0000.82,0004.16,0000.31
2022-04-23 18:33:00,,0813.4,5.00,0.00,22.9,22.0,00.0,31.9,24.7,09.2,0000.0,0000.85,0005.47,0000.31
2022-04-23 18:34:00,,0813.5,4.99,0.00,22.9,22.0,00.0,31.9,24.7,09.3,0000.0,0000.83,0005.40,0000.32
2022-04-23 18:35:00,,0813.7,5.00,0.00,22.9,22.0,00.0,31.9,24.8,09.5,0000.0,0000.77,0005.38,0000.31
2022-04-23 18:36:00,,0813.8,5.00,0.00,22.9,21.9,00.0,31.9,24.7,09.4,0000.0,0000.82,0005.82,0000.31
2022-04-23 18:37:00,,0813.4,5.00,0.00,22.9,21.9,00.0,31.9,24.7,09.4,0000.0,0000.82,0006.98,0000.31
2022-04-23 18:38:00,,0813.8,5.01,0.00,22.9,21.9,00.0,31.9,24.7,09.3,0000.0,0000.84,0007.79,0000.31
2022-04-23 18:39:00,,0813.9,5.00,0.00,22.9,21.9,00.0,31.9,24.7,09.4,0000.0,0000.79,0007.75,0000.30
2022-04-23 18:40:00,,0813.8,4.99,0.00,22.9,21.9,00.0,31.9,24.7,09.5,0000.0,0000.76,0007.75,0000.29
2022-04-23 18:41:00,,0813.8,5.00,0.00,22.9,21.9,00.0,31.9,24.7,09.5,0000.0,0000.76,0008.10,0000.28
2022-04-23 18:42:00,,0813.8,5.01,0.00,22.9,21.9,00.0,31.9,24.7,09.4,0000.0,0000.75,0008.01,0000.27
2022-04-23 18:43:00,,0813.7,5.00,0.00,22.9,21.9,00.0,31.9,24.7,09.4,0000.0,0000.71,0007.86,0000.26
2022-04-23 18:44:00,,0813.8,5.01,0.00,22.9,21.9,00.0,31.9,24.7,09.4,0000.0,0000.66,0006.17,0000.25
2022-04-23 18:45:00,,0814.0,5.00,0.00,22.9,21.8,00.0,31.9,24.7,09.4,0000.0,0000.69,0006.26,0000.24
2022-04-23 18:46:00,,0814.0,5.00,0.00,22.9,21.9,00.0,31.9,24.7,09.3,0000.0,0000.70,0006.09,0000.24
2022-04-23 18:47:00,,0814.0,4.99,0.00,22.9,21.9,00.0,31.9,24.7,09.4,0000.0,0000.62,0005.55,0000.23
2022-04-23 18:48:00,,0814.0,5.00,0.00,22.9,21.9,00.0,31.9,24.7,09.5,0000.0,0000.60,0004.09,0000.23
2022-04-23 18:49:00,,0814.1,5.01,0.00,22.8,21.9,00.0,31.8,24.6,09.5,0000.0,0000.53,0002.96,0000.22
2022-04-23 18:50:00,,0813.9,5.00,0.00,22.8,21.9,00.0,31.8,24.5,09.6,0000.0,0000.56,0003.27,0000.22
2022-04-23 18:51:00,,0814.0,5.00,0.00,22.8,21.9,00.0,31.8,24.6,09.7,0000.0,0000.55,0003.25,0000.23
2022-04-23 18:52:00,,0814.0,4.99,0.00,22.8,21.9,00.0,31.8,24.6,09.6,0000.0,0000.52,0002.41,0000.23
2022-04-23 18:53:00,,0814.0,4.99,0.00,22.8,21.9,00.0,31.8,24.6,09.6,0000.0,0000.49,0002.29,0000.23
2022-04-23 18:54:00,,0814.1,5.01,0.00,22.8,21.9,00.0,31.8,24.6,09.4,0000.0,0000.50,0001.51,0000.23
2022-04-23 18:55:00,,0814.2,5.00,0.00,22.8,21.9,00.0,31.8,24.6,09.4,0000.0,0000.53,0001.52,0000.23
2022-04-23 18:56:00,,0814.4,4.99,0.00,22.8,21.9,00.0,31.8,24.6,09.6,0000.0,0000.53,0001.51,0000.23
2022-04-23 18:57:00,,0814.2,5.01,0.00,22.8,21.9,00.0,31.8,24.6,09.6,0000.0,0000.50,0001.41,0000.23
2022-04-23 18:58:00,,0814.3,5.01,0.00,22.8,21.9,00.0,31.8,24.6,08.8,0000.0,0000.48,0001.40,0000.23
2022-04-23 18:59:00,,0814.0,5.00,0.00,22.8,21.9,00.0,31.8,24.6,09.3,0000.0,0000.49,0001.42,0000.24
